Time,TemperatureF,DewpointF,PressureIn,WindDirection,WindDirectionDegrees,WindSpeedMPH,WindSpeedGustMPH,Humidity,HourlyPrecipIn,Conditions,Clouds,dailyrainin,SoftwareType,DateUTC
2013-01-28 10:00:00,24.0,-3.0,-100.00,WSW,240,5.0,7.0,31,-99.99,,,-99.99,,2013-01-28 15:00:00,
2013-01-28 10:23:00,23.0,-2.0,-100.00,SW,235,5.0,7.0,33,-99.99,,,-99.99,,2013-01-28 15:23:00,
2013-01-28 10:30:00,26.0,-4.0,-100.00,NNW,345,2.0,6.0,26,-99.99,,,-99.99,,2013-01-28 15:30:00,
2013-01-28 10:33:00,23.0,-2.0,-100.00,West,275,3.0,7.0,33,-99.99,,,-99.99,,2013-01-28 15:33:00,
2013-01-28 10:43:00,24.0,-3.0,-100.00,WSW,240,5.0,7.0,31,-99.99,,,-99.99,,2013-01-28 15:43:00,
2013-01-28 10:53:00,24.0,-3.0,-100.00,WSW,240,5.0,7.0,31,-99.99,,,-99.99,,2013-01-28 15:53:00,
2013-01-28 11:13:00,26.0,-4.0,-100.00,NNW,345,2.0,6.0,26,-99.99,,,-99.99,,2013-01-28 16:13:00,
2013-01-28 11:22:00,26.0,-4.0,-100.00,NNW,345,2.0,6.0,26,-99.99,,,-99.99,,2013-01-28 16:22:00,
2013-01-28 12:42:00,28.0,-5.0,-100.00,WSW,240,1.0,5.0,23,-99.99,,,-99.99,,2013-01-28 17:42:00,
2013-01-28 12:53:00,28.0,-5.0,-100.00,WSW,240,1.0,5.0,23,-99.99,,,-99.99,,2013-01-28 17:53:00,
2013-01-28 13:03:00,28.0,-5.0,-100.00,WNW,290,1.0,5.0,23,-99.99,,,-99.99,,2013-01-28 18:03:00,
2013-01-28 14:02:00,28.0,1.0,-100.00,SW,220,2.0,7.0,30,-99.99,,,-99.99,,2013-01-28 19:02:00,
2013-01-28 14:12:00,27.0,6.0,-100.00,WSW,255,3.0,10.0,40,-99.99,,,-99.99,,2013-01-28 19:12:00,
2013-01-28 14:22:00,27.0,10.0,-100.00,WSW,250,7.0,9.0,49,-99.99,,,-99.99,,2013-01-28 19:22:00,
2013-01-28 14:33:00,26.0,12.0,-100.00,SW,225,2.0,8.0,56,-99.99,,,-99.99,,2013-01-28 19:33:00,
2013-01-28 14:42:00,26.0,13.0,-100.00,West,260,2.0,6.0,58,-99.99,,,-99.99,,2013-01-28 19:42:00,
2013-01-28 14:52:00,26.0,14.0,-100.00,ENE,65,3.0,6.0,59,-99.99,,,-99.99,,2013-01-28 19:52:00,
2013-01-28 15:03:00,26.0,15.0,-100.00,ESE,120,2.0,7.0,61,-99.99,,,-99.99,,2013-01-28 20:03:00,
2013-01-28 16:12:00,27.0,15.0,-100.00,NE,35,2.0,6.0,60,-99.99,,,-99.99,,2013-01-28 21:12:00,
2013-01-28 16:23:00,27.0,15.0,-100.00,East,100,3.0,7.0,61,-99.99,,,-99.99,,2013-01-28 21:23:00,
2013-01-28 16:30:00,26.0,18.0,-100.00,SSE,160,3.0,6.0,73,-99.99,,,-99.99,,2013-01-28 21:30:00,
2013-01-28 16:33:00,27.0,16.0,-100.00,NNE,20,1.0,5.0,62,-99.99,,,-99.99,,2013-01-28 21:33:00,
2013-01-28 16:43:00,27.0,16.0,-100.00,East,80,2.0,6.0,62,-99.99,,,-99.99,,2013-01-28 21:43:00,
2013-01-28 16:52:00,26.0,16.0,-100.00,South,175,2.0,6.0,66,-99.99,,,-99.99,,2013-01-28 21:52:00,
2013-01-28 17:02:00,26.0,16.0,-100.00,South,175,2.0,6.0,66,-99.99,,,-99.99,,2013-01-28 22:02:00,
2013-01-28 17:12:00,26.0,18.0,-100.00,SSE,160,3.0,6.0,73,-99.99,,,-99.99,,2013-01-28 22:12:00,
2013-01-28 17:23:00,26.0,18.0,-100.00,SSE,160,3.0,6.0,73,-99.99,,,-99.99,,2013-01-28 22:23:00,
2013-01-28 18:32:00,24.0,23.0,-100.00,East,100,2.0,5.0,93,-99.99,,,-99.99,,2013-01-28 23:32:00,
2013-01-28 18:42:00,24.0,23.0,-100.00,South,190,1.0,5.0,94,-99.99,,,-99.99,,2013-01-28 23:42:00,
2013-01-28 18:52:00,25.0,23.0,-100.00,NE,45,0.0,3.0,94,-99.99,,,-99.99,,2013-01-28 23:52:00,
2013-01-28 19:02:00,25.0,23.0,-100.00,East,80,1.0,2.0,94,-99.99,,,-99.99,,2013-01-29 00:02:00,
2013-01-28 19:12:00,25.0,23.0,-100.00,North,350,1.0,2.0,94,-99.99,,,-99.99,,2013-01-29 00:12:00,
2013-01-28 19:22:00,25.0,24.0,-100.00,ENE,65,2.0,3.0,95,-99.99,,,-99.99,,2013-01-29 00:22:00,
2013-01-28 19:42:00,25.0,23.0,-100.00,North,0,1.0,2.0,95,-99.99,,,-99.99,,2013-01-29 00:42:00,
2013-01-28 19:52:00,25.0,23.0,-100.00,North,0,1.0,3.0,95,-99.99,,,-99.99,,2013-01-29 00:52:00,
2013-01-28 20:02:00,25.0,24.0,-100.00,North,5,2.0,3.0,95,-99.99,,,-99.99,,2013-01-29 01:02:00,
2013-01-28 20:12:00,25.0,24.0,-100.00,North,0,1.0,2.0,95,-99.99,,,-99.99,,2013-01-29 01:12:00,
2013-01-28 20:23:00,25.0,24.0,-100.00,NNW,345,2.0,3.0,95,-99.99,,,-99.99,,2013-01-29 01:23:00,
2013-01-28 20:32:00,25.0,24.0,-100.00,WNW,295,2.0,5.0,95,-99.99,,,-99.99,,2013-01-29 01:32:00,
2013-01-28 20:42:00,25.0,23.0,-100.00,West,275,1.0,5.0,95,-99.99,,,-99.99,,2013-01-29 01:42:00,
2013-01-28 20:52:00,25.0,23.0,-100.00,ENE,60,0.0,1.0,95,-99.99,,,-99.99,,2013-01-29 01:52:00,
2013-01-28 21:33:00,24.0,23.0,-100.00,North,355,2.0,5.0,95,-99.99,,,-99.99,,2013-01-29 02:33:00,
2013-01-28 21:42:00,24.0,23.0,-100.00,North,0,2.0,6.0,95,-99.99,,,-99.99,,2013-01-29 02:42:00,
2013-01-28 22:32:00,24.0,23.0,-100.00,NNW,335,2.0,5.0,95,-99.99,,,-99.99,,2013-01-29 03:32:00,
2013-01-28 22:42:00,24.0,23.0,-100.00,West,275,2.0,5.0,95,-99.99,,,-99.99,,2013-01-29 03:42:00,
2013-01-28 22:52:00,23.0,22.0,-100.00,North,355,3.0,6.0,95,-99.99,,,-99.99,,2013-01-29 03:52:00,
2013-01-28 23:12:00,23.0,22.0,-100.00,North,0,3.0,7.0,94,-99.99,,,-99.99,,2013-01-29 04:12:00,
2013-01-28 23:22:00,23.0,22.0,-100.00,North,0,3.0,7.0,94,-99.99,,,-99.99,,2013-01-29 04:22:00,
2013-01-28 23:32:00,23.0,22.0,-100.00,North,5,2.0,3.0,94,-99.99,,,-99.99,,2013-01-29 04:32:00,
2013-01-28 23:42:00,23.0,22.0,-100.00,NNW,335,1.0,6.0,94,-99.99,,,-99.99,,2013-01-29 04:42:00,
2013-01-28 23:52:00,23.0,22.0,-100.00,NNW,335,1.0,6.0,94,-99.99,,,-99.99,,2013-01-29 04:52:00,